Flag for Lebanon Weather past 2 weeks in Beirut, Lebanon

Now
77 °F

Partly sunny.


Feels Like: 79 °F
Forecast: 72 / 78 °F
Wind: 5 mph from Southwest

Location: Beirut Airport

Current Time: May 24, 2015 at 5:19:05 PM

Latest Report: May 24, 2015 at 4:00 PM


Visibility: 5 mi

Pressure: 29.98 "Hg

Humidity: 61%

Dew point: 63 °F

Location of BeirutLocation

Historic Weather in Beirut — Graph

°F

Beirut temperature yesterday

Maximum temperature yesterday: 77 °F (at 2:00 PM)
Minimum temperature yesterday: 70 °F (at 2:00 AM)
Average temperature yesterday: 73 °F

Past Weeks' High & Low Weather Summary

 TemperatureHumidityPressure
High104 °F (May 19, 1:00 PM)94% (May 20, 2:00 AM)30.21 "Hg (May 20, 2:00 AM)
Low64 °F (May 14, 9:00 AM)10% (May 19, 9:00 AM)29.71 "Hg (May 9, 6:00 PM)
Average74 °F63%29.94 "Hg
* Reported May 9 4:00 PM — May 24 4:00 PM, Beirut, Weather by CustomWeather, © 2015

Note: Actual official high and low records may vary slightly from our data, if they occured in-between our weather recording intervals... More about our weather records

Advertising

Beirut weather history for previous 24 hours

 ConditionsComfort  
Time TempWeatherWind HumidityBarometerVisibility
4:00 PM
Sun, May 24
77 °FPartly sunny.5 mph61%29.98 "Hg5 mi
3:00 PM77 °FPartly sunny.6 mph61%29.98 "Hg5 mi
2:00 PM77 °FPartly sunny.8 mph57%29.98 "Hg4 mi
1:00 PM77 °FPartly sunny.9 mph61%29.98 "Hg4 mi
12:00 PM77 °FPartly sunny.8 mph61%30.01 "Hg5 mi
11:00 AM77 °FPartly sunny.10 mph57%29.98 "Hg5 mi
10:00 AM75 °FPartly sunny.9 mph65%29.98 "Hg5 mi
9:00 AM73 °FScattered clouds.12 mph74%29.98 "Hg5 mi
8:00 AM73 °FPartly sunny.13 mph74%29.95 "Hg5 mi
7:00 AM72 °FPassing clouds.6 mph73%29.92 "Hg5 mi
6:00 AM68 °FPassing clouds.3 mph69%29.92 "Hg5 mi
5:00 AM68 °FPassing clouds.6 mph73%29.95 "Hg5 mi
4:00 AM68 °FPassing clouds.5 mph73%29.95 "HgN/A
3:00 AM68 °FFog.1 mph78%29.95 "Hg5 mi
2:00 AM70 °FFog.5 mph73%29.95 "Hg5 mi
1:00 AM70 °FFog.6 mph78%29.95 "Hg5 mi
12:00 AM70 °FPassing clouds.6 mph83%29.98 "Hg5 mi
11:00 PM
Sat, May 23
72 °FFog.8 mph83%29.95 "Hg3 mi
10:00 PM72 °FFog.8 mph78%29.95 "Hg3 mi
9:00 PM72 °FPassing clouds.8 mph83%29.95 "Hg5 mi
8:00 PM72 °FPartly sunny.8 mph78%29.95 "HgN/A
7:00 PM73 °FPartly sunny.12 mph74%29.95 "HgN/A
6:00 PM75 °FScattered clouds.12 mph69%29.95 "HgN/A
5:00 PM77 °FScattered clouds.14 mph69%29.95 "HgN/A
Weather by CustomWeather, © 2015

See weather overviewHow to use our weather pages